Presure
216 221 207 209 203 187 196 198 195 168 189 172 182 161 166 169 178 169 191 189 194 165 167 166 199 177 208 201 223 218 170 172 150 175 167 180 171 174 169 165 172 169 172
299 238 219 203 198 201 197 155 187 181 187 205 175 179 190 179 179 151 198 169 150 182 196 170 157 184 150 198 144 163 167 166 172 163 169 161 171 178 166 171 171 169 176
282 291 329 236 210 198 209 170 194 165 189 169 201 189 187 182 163 168 180 190 180 163 180 182 159 199 181 164 207 166 185 163 176 177 174 137 177 171 186 174 175 160 180
260 270 283 326 241 211 193 204 196 198 160 180 178 187 191 181 176 197 160 180 174 180 189 185 162 157 181 165 207 182 161 192 222 161 155 142 182 167 184 173 179 162 165
327 323 291 284 306 217 225 198 210 196 189 189 185 194 207 155 192 159 162 197 154 201 181 158 148 183 187 197 155 204 157 158 157 194 196 188 169 147 168 161 162 171 159
323 318 314 297 295 315 252 189 200 201 205 197 188 188 208 183 194 198 182 182 176 153 173 172 190 166 179 171 168 201 179 206 185 214 148 216 157 181 152 174 181 169 173
324 315 313 305 282 319 301 219 214 201 198 206 196 193 172 212 190 192 161 163 189 162 199 174 171 181 158 177 210 204 179 174 173 199 206 166 208 169 171 191 174 179 175
344 331 314 320 292 318 303 293 215 201 210 199 203 205 190 189 216 181 174 179 187 175 142 173 190 178 177 175 189 180 204 160 165 159 200 187 219 208 150 179 190 176 154
345 333 321 307 311 320 307 297 275 228 215 207 198 201 204 203 199 210 192 210 188 151 182 150 193 195 174 176 173 190 184 144 158 153 169 190 214 159 218 165 178 173 174
344 322 316 312 315 308 312 299 287 270 249 212 204 204 203 214 204 200 211 200 181 196 173 187 164 199 189 186 178 189 174 182 181 193 204 173 210 198 177 215 162 189 171
333 315 308 314 305 301 304 302 289 283 268 253 226 213 206 214 204 210 210 193 196 166 191 189 187 194 197 184 180 173 170 188 196 176 179 192 166 163 189 179 164 161 183
323 339 322 309 307 291 298 301 305 285 279 262 254 235 220 213 212 208 207 203 185 206 180 171 182 182 159 193 201 196 181 172 168 195 188 201 164 232 158 175 141 194 145
314 328 302 293 300 290 291 292 319 283 278 271 255 248 242 235 224 222 229 213 217 190 207 188 191 184 186 206 185 194 191 189 169 189 192 198 184 194 169 153 172 210 138
297 306 336 296 287 293 286 278 293 301 279 274 268 254 249 244 243 230 226 224 223 230 220 220 204 207 194 206 173 188 199 182 185 172 174 201 174 152 146 213 202 187 189
296 299 298 306 308 289 291 293 280 293 292 274 274 262 253 249 245 241 233 228 226 223 222 224 219 218 190 190 190 199 183 185 183 182 179 193 154 213 210 197 177 151 187
279 277 283 298 306 301 286 296 306 299 281 290 276 271 252 253 253 244 238 236 228 224 217 208 217 204 213 199 201 206 205 190 195 191 177 194 183 150 190 205 178 172 146
282 276 279 278 285 285 291 300 285 289 291 271 276 272 271 256 252 247 241 241 238 230 218 217 216 217 212 209 209 214 207 203 190 177 193 190 172 192 181 198 190 155 167
285 273 278 278 275 285 283 288 291 283 290 293 297 278 268 279 257 256 254 248 237 235 235 231 232 224 232 221 216 212 215 218 220 215 209 214 195 178 175 176 201 201 167
279 275 277 270 267 271 274 275 279 275 286 276 287 290 292 279 270 260 262 251 242 237 236 250 237 227 232 228 222 235 223 218 230 214 217 187 202 202 189 152 168 158 188
283 279 279 269 276 272 280 275 265 279 276 263 289 279 286 286 288 279 259 258 259 249 241 241 246 230 229 235 227 229 233 235 214 235 214 215 203 206 181 164 190 187 168
289 273 273 266 264 266 269 282 277 273 265 280 281 290 276 277 288 289 287 263 278 260 266 252 245 252 238 243 236 248 233 225 230 231 221 208 217 219 214 205 208 203 181
282 276 280 271 270 266 272 266 263 269 266 270 273 273 283 286 269 278 291 288 281 290 267 260 246 255 237 259 241 243 249 252 252 226 227 221 218 210 205 216 219 201 204
282 285 279 279 277 271 270 281 283 271 267 264 263 266 275 253 281 285 267 282 273 275 277 253 274 260 260 258 244 253 247 244 230 228 236 226 232 220 216 224 222 213 214
289 280 283 277 273 288 279 270 266 281 291 261 269 277 262 262 282 273 276 277 276 273 285 271 272 269 276 265 268 262 255 244 244 242 228 242 227 237 223 230 221 223 225
296 293 291 287 284 289 285 276 282 279 281 279 282 277 283 274 289 287 290 276 274 272 274 277 266 243 266 265 267 263 262 254 244 247 244 237 236 237 222 227 226 230 223
286 287 275 280 281 276 273 269 272 285 281 291 256 265 264 287 261 274 271 290 304 296 278 273 272 259 271 262 267 265 253 252 243 246 245 248 241 243 239 239 229 240 235
Wind_Speed
130 128 125 126 126 126 121 115 107 106 114 111 110 94 79 81 89 65 84 80 80 73 70 70 64 73 58 64 60 79 76 76 77 87 82 96 92 95 87 85 90 85 76
99 127 133 130 128 130 129 103 120 121 111 108 105 108 103 104 96 85 90 86 85 76 77 79 78 72 82 67 81 79 81 78 80 82 86 86 90 95 84 90 88 86 86
101 100 94 134 136 133 128 115 126 111 118 107 113 114 108 95 88 89 92 91 84 84 77 69 82 76 77 81 70 85 76 83 85 85 84 83 98 93 97 91 93 81 84
108 107 104 97 130 141 133 136 133 125 116 120 118 119 115 108 97 106 96 98 79 88 87 82 80 85 75 87 74 87 85 79 75 86 86 83 96 89 95 88 90 84 83
85 91 104 106 107 142 141 136 136 136 130 126 126 121 116 105 116 93 84 101 96 94 87 92 93 85 83 85 88 73 89 91 87 85 97 100 93 80 86 84 83 90 84
82 88 94 103 105 106 136 130 138 137 136 133 128 125 121 115 118 116 107 103 94 100 88 89 95 86 85 84 90 82 83 75 89 77 90 97 90 100 80 91 97 94 92
81 84 90 96 107 105 111 147 145 143 135 138 132 133 120 125 120 119 105 96 111 107 105 97 99 95 96 83 88 88 91 87 91 85 86 94 101 97 94 98 92 100 99
70 80 87 90 101 101 110 116 150 145 147 138 138 136 132 127 122 109 100 98 113 94 103 91 104 101 94 91 96 91 89 101 98 96 85 94 80 99 88 97 98 100 88
61 71 80 88 92 96 108 115 123 147 147 145 137 135 136 133 132 128 123 125 116 107 103 105 114 107 96 94 88 96 86 94 102 98 95 94 82 94 88 95 94 99 106
51 70 77 84 87 94 101 113 119 126 140 146 141 140 137 133 132 127 127 123 115 122 99 113 96 114 109 109 100 104 99 94 94 92 87 93 87 93 92 83 93 105 109
51 69 76 75 83 89 96 104 116 122 127 137 146 145 139 136 132 128 130 126 124 115 124 120 116 119 117 109 107 95 98 102 100 94 96 94 95 101 100 88 99 96 109
49 54 61 69 72 87 90 94 98 117 122 127 131 142 145 139 135 133 132 131 120 127 115 104 113 111 114 118 117 121 107 92 109 105 100 98 94 90 103 104 92 113 97
44 48 67 71 70 82 85 91 67 108 117 124 126 131 135 141 142 139 138 135 132 124 128 126 128 114 118 124 114 118 119 111 104 110 107 106 97 95 107 109 106 99 95
48 49 50 69 75 76 86 92 88 84 109 118 123 126 128 129 132 134 133 134 131 127 126 124 127 128 125 129 116 116 120 115 114 100 98 113 108 113 92 102 99 108 107
44 42 48 55 64 73 75 78 92 80 88 109 117 122 124 125 125 127 130 131 130 128 126 124 129 129 127 125 120 124 117 114 116 118 111 115 117 112 112 103 114 107 111
57 56 54 47 46 55 72 69 66 75 92 85 106 119 120 123 124 126 127 127 129 129 129 122 128 123 126 128 125 124 123 124 127 124 113 121 121 116 103 105 112 124 114
59 55 55 54 52 57 58 59 70 74 81 96 98 108 117 122 123 125 126 123 126 129 131 129 129 131 131 131 131 127 126 125 128 120 129 123 116 121 118 119 113 126 123
60 58 55 56 56 54 54 56 58 71 71 77 80 97 109 110 121 120 124 126 122 127 129 130 131 132 132 137 137 131 129 129 126 124 131 124 130 121 128 125 120 120 124
59 61 59 58 57 57 62 63 62 66 67 79 73 73 81 99 113 116 120 126 123 124 125 129 127 131 131 129 135 132 133 133 130 129 134 128 135 131 127 112 134 131 119
64 62 60 62 62 63 64 63 66 65 68 80 70 80 80 82 85 102 119 122 124 123 126 126 125 130 133 133 132 131 136 135 129 131 133 135 135 136 131 134 129 132 140
64 61 62 63 66 66 65 65 65 66 70 66 70 70 82 84 84 89 95 112 111 118 123 124 125 130 133 129 129 129 132 130 130 130 136 135 135 140 139 137 133 136 131
65 63 63 65 67 67 67 69 71 70 72 71 72 74 73 75 89 87 86 94 99 96 114 120 120 130 124 131 129 126 125 128 136 128 133 135 139 139 136 139 140 141 144
67 71 68 68 67 67 66 66 69 72 74 76 77 78 77 88 78 80 95 90 95 95 100 112 105 118 121 121 122 123 125 124 126 130 135 136 137 140 140 140 145 150 149
68 68 71 69 68 72 71 71 71 69 69 78 79 81 78 80 81 83 85 88 91 94 92 100 102 103 103 108 109 116 121 125 130 131 131 134 135 144 142 146 147 151 150
67 70 71 71 70 72 70 70 72 71 70 72 74 76 75 80 78 83 88 89 91 94 95 97 100 104 105 108 106 109 111 121 128 130 133 134 137 142 138 141 145 149 147
67 68 65 68 69 69 69 69 69 71 73 75 78 77 80 76 84 82 85 83 85 92 95 97 99 103 103 104 109 112 115 120 126 125 126 127 134 139 142 145 146 152 150
Wind_Direction
239 239 236 233 237 246 241 237 236 252 242 253 248 237 246 250 232 244 248 249 243 225 224 228 243 224 225 217 219 218 227 225 233 224 231 227 234 234 240 245 246 255 249
241 235 231 234 238 235 237 230 241 244 239 231 245 247 234 249 250 221 237 229 227 243 242 230 230 234 232 222 234 231 230 229 227 230 230 234 236 233 241 240 245 249 251
241 238 229 230 230 236 234 233 239 232 235 234 234 241 240 231 232 227 248 238 232 232 237 244 225 244 237 229 232 233 229 231 226 230 231 239 231 237 234 238 239 248 246
241 237 234 223 228 229 237 231 234 234 232 241 242 241 238 243 239 231 224 232 247 241 238 239 223 226 235 229 231 225 234 225 222 233 234 236 231 234 232 239 237 248 249
230 228 230 229 222 227 227 235 228 234 237 236 239 233 233 222 235 234 228 234 223 235 243 230 229 242 243 243 228 233 235 236 233 222 223 225 238 237 237 245 246 242 250
230 228 225 225 224 215 224 234 232 231 230 233 236 235 230 238 229 232 241 241 236 222 241 230 237 227 239 231 229 239 226 231 227 226 236 225 236 234 238 236 238 244 242
226 225 224 223 223 216 215 226 228 232 234 229 234 233 237 232 229 234 230 231 233 231 235 239 236 238 226 236 244 243 237 225 230 228 224 232 226 235 237 235 237 238 242
222 220 222 220 219 217 214 213 227 231 229 233 231 231 237 236 232 234 239 227 233 241 234 239 237 237 239 235 242 231 243 232 232 237 229 230 233 229 239 235 233 237 248
221 217 218 219 217 216 215 213 216 225 228 230 234 234 233 234 234 229 236 230 237 232 241 235 236 234 239 239 236 243 239 242 238 242 233 231 236 241 233 234 233 231 238
215 213 215 216 217 215 216 214 214 216 223 229 232 234 233 233 235 235 231 233 229 232 238 238 226 233 236 238 239 242 239 234 236 240 240 232 232 230 236 235 236 232 234
213 211 214 215 214 216 217 217 215 215 217 223 228 231 234 233 234 234 233 236 236 232 235 238 238 238 233 238 239 233 233 243 242 231 226 240 241 237 232 237 237 238 232
211 208 212 214 214 214 217 218 220 217 216 218 221 227 231 233 234 234 235 233 238 235 236 230 240 240 231 235 235 240 242 235 238 247 241 242 246 247 243 236 244 228 247
207 208 211 211 213 213 215 217 218 217 217 217 218 221 224 228 232 233 235 237 236 237 235 238 238 236 242 236 240 238 240 242 230 246 245 247 229 235 234 245 239 231 243
206 209 206 210 212 213 214 214 218 220 218 218 218 219 221 224 225 229 231 233 235 232 234 234 236 236 239 238 238 238 240 242 245 236 235 246 234 241 244 241 232 234 237
196 202 207 211 212 214 215 217 215 218 220 220 220 219 220 221 224 224 227 230 232 233 234 233 234 235 240 239 240 239 239 239 240 244 240 246 237 248 249 239 232 246 238
203 207 209 211 207 213 215 217 220 214 220 219 222 219 220 221 221 224 225 227 229 231 234 234 235 238 237 240 239 238 236 241 242 243 239 247 243 245 247 245 236 233 252
202 207 207 210 208 213 214 217 217 218 216 221 222 223 223 222 222 223 225 227 227 229 233 235 235 236 237 239 241 239 238 239 242 235 243 247 232 250 244 250 246 244 247
204 206 210 209 212 213 213 217 213 216 217 219 221 226 225 226 225 226 225 227 227 228 230 231 233 234 235 238 240 241 242 241 241 239 241 238 246 237 244 248 252 251 246
210 208 207 208 211 214 217 218 217 216 216 220 217 221 225 227 227 228 226 228 227 229 231 230 230 234 235 235 237 237 237 241 240 237 238 239 242 243 245 249 240 248 239
211 210 213 211 212 213 217 219 218 219 218 220 215 222 222 224 228 229 229 229 230 230 232 232 233 232 235 236 237 237 237 238 240 239 238 238 241 242 240 239 246 247 240
213 214 215 215 216 216 217 220 219 218 219 217 216 217 223 225 226 226 229 232 235 232 233 233 234 234 234 236 239 236 237 240 240 240 237 240 240 240 243 246 245 246 247
218 220 219 218 219 219 220 219 219 219 220 220 220 221 220 222 229 229 229 232 235 235 237 234 236 235 237 237 239 239 237 238 238 236 237 238 240 243 243 242 240 245 247
220 223 223 222 222 222 222 223 223 223 224 225 226 227 227 229 225 227 231 231 233 234 237 236 238 237 239 239 240 240 238 236 235 238 237 238 238 240 241 241 240 243 247
220 222 223 225 226 226 225 225 223 224 225 227 229 230 230 231 233 231 230 231 232 234 234 235 236 238 239 239 238 238 238 237 237 238 237 239 238 238 241 239 241 242 243
223 223 223 224 225 226 227 227 228 228 227 227 228 230 231 232 231 233 234 234 235 235 235 236 238 240 241 240 240 238 238 239 239 240 239 239 240 240 241 242 243 242 243
228 227 227 229 229 227 227 227 229 232 231 230 230 232 233 232 235 235 236 236 236 238 236 237 238 241 240 241 241 240 239 239 242 243 243 244 243 244 243 244 244 246 245